This is the latest recevied weather packets stored in our database for station/object NK7E-2. If no packets are shown the sender has not sent any weather packets the latest 10 day(s).
| Time | Temp. | Humidity | Pressure | Rain* | Wind** | Luminosity | Snow |
|---|---|---|---|---|---|---|---|
| 1777863316 | 25° C | 16% | 1019.8 hPa | 0 mm | - | - | - |
| 1777862716 | 25.56° C | 16% | 1019.5 hPa | 0 mm | - | - | - |
| 1777862116 | 25.56° C | 16% | 1019.5 hPa | 0 mm | - | - | - |
| 1777861516 | 26.11° C | 15% | 1019.4 hPa | 0 mm | - | - | - |
| 1777860916 | 26.11° C | 15% | 1019.3 hPa | 0 mm | - | - | - |
| 1777860316 | 26.67° C | 15% | 1019.2 hPa | 0 mm | - | - | - |
| 1777859717 | 27.22° C | 15% | 1019.1 hPa | 0 mm | - | - | - |
| 1777859116 | 27.22° C | 15% | 1019.2 hPa | 0 mm | - | - | - |
| 1777858516 | 27.78° C | 15% | 1019.2 hPa | 0 mm | - | - | - |
| 1777857916 | 28.33° C | 15% | 1019.5 hPa | 0 mm | - | - | - |
| 1777857316 | 28.89° C | 15% | 1019.3 hPa | 0 mm | - | - | - |
| 1777856716 | 29.44° C | 15% | 1019.4 hPa | 0 mm | - | - | - |
| 1777856116 | 30° C | 15% | 1019.5 hPa | 0 mm | - | - | - |
| 1777855516 | 30° C | 15% | 1019.5 hPa | 0 mm | - | - | - |
| 1777854916 | 30° C | 15% | 1019.5 hPa | 0 mm | - | - | - |
| 1777854316 | 30° C | 14% | 1019.6 hPa | 0 mm | - | - | - |
| 1777853716 | 30° C | 15% | 1019.7 hPa | 0 mm | - | - | - |
| 1777853116 | 30° C | 22% | 1019.8 hPa | 0 mm | - | - | - |
| 1777852516 | 30° C | 22% | 1019.8 hPa | 0 mm | - | - | - |
| 1777851916 | 29.44° C | 23% | 1020.3 hPa | 0 mm | - | - | - |
| 1777851316 | 29.44° C | 22% | 1020.5 hPa | 0 mm | - | - | - |
| 1777850716 | 29.44° C | 23% | 1020.5 hPa | 0 mm | - | - | - |
| 1777850116 | 30° C | 22% | 1020.3 hPa | 0 mm | - | - | - |
| 1777849516 | 28.89° C | 24% | 1020.2 hPa | 0 mm | - | - | - |
| 1777848916 | 29.44° C | 23% | 1020.6 hPa | 0 mm | - | - | - |
* Rain latest hour (hover to see other rain measurements)
** Current wind speed in m/s (hover to see current wind gust speed)